Muskegon, MI

6:05 AM EDT on August 23, 2019 (GMT -0400)
Muskegon County

Weather History for KMKG - July, 2019

Change the Weather History Date:

Wednesday, July 24, 2019

  Actual Average Record
Temperature  
Mean Temperature 66 °F 71 °F  
Max Temperature 78 °F 81 °F 93 °F (1964)
Min Temperature 54 °F 62 °F 43 °F (1921)
Degree Days  
Heating Degree Days 0 0  
Month to date heating degree days 4  
Since 1 June heating degree days 70  
Since 1 July heating degree days 4  
Cooling Degree Days 0 7  
Month to date cooling degree days 159  
Year to date cooling degree days 293  
Since 1 June cooling degree days 264  
Growing Degree Days 16 (Base 50)    
Moisture  
Dew Point 52 °F    
Average Humidity 58    
Maximum Humidity 84    
Minimum Humidity 29    
Precipitation  
Precipitation 0.00 in 0.08 in 2.93 in (2016)
Month to date precipitation 1.76  
Year to date precipitation 16.58  
Snow  
Snow 0.00 in 0.00 in - ()
Month to date snowfall 0.0  
Since 1 June snowfall 0.0  
Since 1 July snowfall 0.0  
Snow Depth -    
Sea Level Pressure  
Sea Level Pressure 30.15 in    
Wind  
Wind Speed 5 mph (NW)    
Max Wind Speed 10 mph    
Max Gust Speed -    
Visibility 10 miles    
Events      
T = Trace of Precipitation, MM = Missing Value Source: NWS Daily Summary

Daily Weather History Graph

Daily Weather History Graph

Search for Another Location

Airport or City:

Astronomy

Jul. 24, 2019 Rise Set
Actual Time 6:27 AM EDT 9:15 PM EDT
Civil Twilight 5:53 AM EDT 9:48 PM EDT
Nautical Twilight 5:11 AM EDT 10:30 PM EDT
Astronomical Twilight 4:22 AM EDT 11:18 PM EDT
Moon 12:52 AM EDT (7/24) 1:48 PM EDT (7/24)
Length of Visible Light 15h 54m
Length of Day
14h 48m
Waning Gibbous, 54% of the Moon is Illuminated
Jul 24
Waning Gibbous
Jul 24
Last Quarter
Jul 31
New
Aug 7
First Quarter
Aug 15
Full

Hourly Weather History & Observations

Time (EDT) Temp. Dew Point Humidity Pressure Visibility Wind Dir Wind Speed Gust Speed Precip Events Conditions
12:55 AM 61.0 °F 51.1 °F 70% 30.11 in 10.0 mi North 3.5 mph - N/A   Clear
1:55 AM 61.0 °F 54.0 °F 78% 30.12 in 10.0 mi North 3.5 mph - N/A   Clear
2:55 AM 60.1 °F 54.0 °F 80% 30.12 in 10.0 mi North 5.8 mph - N/A   Clear
3:55 AM 57.9 °F 53.1 °F 84% 30.11 in 10.0 mi North 3.5 mph - N/A   Clear
4:55 AM 59.0 °F 52.0 °F 78% 30.12 in 10.0 mi North 4.6 mph - N/A   Clear
5:55 AM 55.9 °F 51.1 °F 84% 30.14 in 10.0 mi North 5.8 mph - N/A   Scattered Clouds
6:55 AM 55.9 °F 51.1 °F 84% 30.15 in 10.0 mi NNW 3.5 mph - N/A   Partly Cloudy
7:55 AM 62.1 °F 53.1 °F 72% 30.16 in 10.0 mi North 3.5 mph - N/A   Partly Cloudy
8:55 AM 66.0 °F 52.0 °F 60% 30.18 in 10.0 mi North 5.8 mph - N/A   Partly Cloudy
9:55 AM 71.1 °F 46.9 °F 42% 30.19 in 10.0 mi NNW 4.6 mph - N/A   Partly Cloudy
10:55 AM 73.0 °F 44.1 °F 35% 30.19 in 10.0 mi Variable 4.6 mph - N/A   Partly Cloudy
11:55 AM 75.9 °F 46.0 °F 35% 30.18 in 10.0 mi NW 5.8 mph - N/A   Partly Cloudy
12:55 PM 77.0 °F 52.0 °F 42% 30.18 in 10.0 mi West 6.9 mph - N/A   Clear
1:55 PM 77.0 °F 51.1 °F 40% 30.17 in 10.0 mi WNW 8.1 mph - N/A   Partly Cloudy
2:55 PM 77.0 °F 51.1 °F 40% 30.15 in 10.0 mi West 10.4 mph - N/A   Clear
3:55 PM 75.9 °F 48.0 °F 37% 30.14 in 10.0 mi WNW 10.4 mph - N/A   Clear
4:55 PM 75.9 °F 48.0 °F 37% 30.14 in 10.0 mi West 9.2 mph - N/A   Clear
5:55 PM 75.9 °F 48.0 °F 37% 30.14 in 10.0 mi WNW 8.1 mph - N/A   Clear
6:55 PM 73.9 °F 48.9 °F 41% 30.14 in 10.0 mi WNW 6.9 mph - N/A   Clear
7:55 PM 71.1 °F 52.0 °F 51% 30.14 in 10.0 mi West 4.6 mph - N/A   Scattered Clouds
8:55 PM 68.0 °F 55.0 °F 63% 30.13 in 10.0 mi SW 3.5 mph - N/A   Mostly Cloudy
9:55 PM 66.9 °F 55.9 °F 68% 30.13 in 10.0 mi Calm Calm - N/A   Overcast
10:55 PM 66.0 °F 57.0 °F 73% 30.13 in 10.0 mi Calm Calm - N/A   Overcast
11:55 PM 64.0 °F 57.0 °F 78% 30.13 in 10.0 mi SW 3.5 mph - N/A   Clear